Regional Weather Roundup
Issued by NWS Kansas City/Pleasant Hill, MO

Home | Current Version | Previous Version | Graphics & Text | Print | Product List | Glossary Off
Versions: 1 2 3 4 5 6 7 8 9 10 11 12 13 14 15 16 17 18 19 20 21 22 23 24 25 26 27 28 29 30 31 32 33 34 35 36 37 38 39 40 41 42 43 44 45 46 47 48 49 50

000
ASUS43 KEAX 220311
RWREAX

WEATHER ROUNDUP FOR EASTERN KANSAS AND NORTHWEST MISSOURI
NATIONAL WEATHER SERVICE KANSAS CITY/PLEASANT HILL MO
1000 PM CDT THU AUG 21 2014

KSZ040-057-103>105-MOZ028-029-037-043-220400-
...KANSAS CITY METROPOLITAN AREA...

CITY           SKY/WX    TMP DP  RH WIND       PRES   REMARKS
K.C. INTL      CLEAR     85  72  65 S13       29.90R HX  91
K.C. DOWNTOWN  CLEAR     89  71  55 S16       29.88R HX  95
LEES SUMMIT    CLEAR     86  71  60 S10       29.92R HX  91
OLATHE - IXD   CLEAR     85  72  65 S15       29.92R HX  91
OLATHE - OJC   CLEAR     83  72  69 S9        29.91R
LAWRENCE       CLEAR     89  72  56 S13       29.89R HX  96

$$

MOZ001>008-011>017-020>025-030>033-038>040-044>046-053-054-220400-
...NORTHERN AND CENTRAL MISSOURI...

CITY           SKY/WX    TMP DP  RH WIND       PRES   REMARKS
ST. JOSEPH     CLEAR     83  74  74 S7        29.86R
MOSBY          CLEAR     84  72  65 S5        29.89R
WHITEMAN AFB   PTCLDY    82  66  59 SW12      29.92R
CLINTON        CLEAR     82  72  69 SW6       29.94R
SEDALIA        CLEAR     82  71  69 SW6       29.94R
WARSAW         NOT AVBL
MARSHALL       CLEAR     82  77  83 S6        29.93R HX  91
CHILLICOTHE      N/A     84  75  74 S6        29.90R HX  92
MOBERLY        MOCLDY    81  73  78 S5        29.93R
KIRKSVILLE     PTCLDY    78  75  90 S6        29.92R

$$

MOZ041-047>049-056>058-063>065-088>090-097-220400-
...EASTERN AND SOUTHERN MISSOURI...

CITY           SKY/WX    TMP DP  RH WIND       PRES   REMARKS
ST. LOUIS INTL MOCLDY    88  76  67 S10       29.95R HX  99
SPIRIT OF STL  PTCLDY    79  76  90 CALM      29.93R
COLUMBIA         N/A     81  73  76 S6        29.94R
JEFFERSON CITY PTCLDY    80  75  84 E5        29.92R
MEXICO         MOCLDY    79  79 100 S5        29.93R
HANNIBAL       CLEAR     82  75  78 S3        29.92S
ROLLA          CLEAR     84  67  56 S12       29.97R
LEBANON        CLEAR     84  66  54 S9        30.00R
OSAGE BEACH    CLEAR     84  66  54 S3        29.96R
SPRINGFIELD    CLEAR     83  67  58 SW13      30.00R
BRANSON        CLEAR     79  68  69 S5        30.05R
JOPLIN         CLEAR     83  70  64 S15       29.98R
WEST PLAINS    CLEAR     81  65  58 SW5       30.05R

$$

IAZ060-094-KSZ022-034>040-054-083-096-NEZ052-066-093-220400-
...KANSAS...SOUTHEAST NEBRASKA AND IOWA...

CITY           SKY/WX    TMP DP  RH WIND       PRES   REMARKS
TOPEKA         CLEAR     90  73  57 S13       29.88R HX  98
MANHATTAN      CLEAR     90  68  48 S12G20    29.84F HX  94
EMPORIA        CLEAR     86  72  62 S15       29.91R HX  92
CHANUTE        CLEAR     84  71  65 S15       29.95R
WICHITA        PTCLDY    86  69  56 S16       29.90R HX  90
OMAHA          CLOUDY    83  74  74 SE5       29.85S
LINCOLN        CLOUDY    83  72  69 SE5       29.87R
FALLS CITY     MOCLDY    83  79  88 CALM      29.84R HX  94
LAMONI         MOCLDY    81  76  84 SE8       29.88R
DES MOINES     PTCLDY    83  76  79 SE5       29.87R HX  91

$$



USA.gov is the U.S. government's official web portal to all federal, state and local government web resources and services.